This is the latest recevied weather packets stored in our database for station/object KD2VWU. If no packets are shown the sender has not sent any weather packets the latest 10 day(s).
| Time | Temp. | Humidity | Pressure | Rain* | Wind** | Luminosity | Snow |
|---|---|---|---|---|---|---|---|
| 1778019901 | 22.22° C | 57% | 1004.3 hPa | 0 mm | - | - | - |
| 1778019596 | 22.22° C | 58% | 1004.5 hPa | 0 mm | - | - | - |
| 1778019294 | 22.22° C | 57% | 1004.5 hPa | 0 mm | - | - | - |
| 1778018991 | 22.78° C | 57% | 1004.7 hPa | 0 mm | - | - | - |
| 1778018688 | 23.33° C | 54% | 1004.6 hPa | 0 mm | - | - | - |
| 1778018386 | 23.89° C | 54% | 1004.8 hPa | 0 mm | - | - | - |
| 1778018084 | 24.44° C | 53% | 1004.6 hPa | 0 mm | - | - | - |
| 1778017781 | 23.89° C | 53% | 1004.6 hPa | 0 mm | - | - | - |
| 1778017479 | 23.89° C | 52% | 1004.5 hPa | 0 mm | - | - | - |
| 1778017176 | 23.89° C | 52% | 1004.4 hPa | 0 mm | - | - | - |
| 1778016874 | 23.89° C | 53% | 1004.3 hPa | 0 mm | - | - | - |
| 1778016570 | 24.44° C | 53% | 1004.3 hPa | 0 mm | - | - | - |
| 1778016267 | 24.44° C | 52% | 1004.3 hPa | 0 mm | - | - | - |
| 1778015963 | 25° C | 52% | 1004.3 hPa | 0 mm | - | - | - |
| 1778015661 | 25° C | 50% | 1004.3 hPa | 0 mm | - | - | - |
| 1778015357 | 25.56° C | 47% | 1004.1 hPa | 0 mm | - | - | - |
| 1778015063 | 25.56° C | 51% | 1004 hPa | 0 mm | - | - | - |
| 1778014751 | 25.56° C | 52% | 1004.1 hPa | 0 mm | - | - | - |
| 1778014449 | 25.56° C | 49% | 1004.1 hPa | 0 mm | - | - | - |
| 1778014146 | 25.56° C | 50% | 1004.3 hPa | 0 mm | - | - | - |
| 1778013844 | 25.56° C | 52% | 1004 hPa | 0 mm | - | - | - |
| 1778013541 | 25° C | 51% | 1004.3 hPa | 0 mm | - | - | - |
| 1778013237 | 25.56° C | 49% | 1004.5 hPa | 0 mm | - | - | - |
| 1778012933 | 26.11° C | 50% | 1004.5 hPa | 0 mm | - | - | - |
| 1778012630 | 26.67° C | 48% | 1004.5 hPa | 0 mm | - | - | - |
* Rain latest hour (hover to see other rain measurements)
** Current wind speed in m/s (hover to see current wind gust speed)